Weather in Burshtin

Ukraine / Ivano-Frankovsk District     49°15′44″N   24°37′40″E
temp.,
°C
wind,
m/s
gust,
m/s
humid.,
%
clouds,
%
prec.,
mm/h
press.,
hPa
HPBL,
m
25 october, mon
mon2500:00+2s1169100 0.0 103510
03:00+1se22755 0.0 103410
06:000ese22805 0.0 103311
09:00+1ese25745 0.0 1033133
12:00+8se68465 0.0 1032599
15:00+11se67345 0.0 1029744
18:00+8se510435 0.0 1028235
21:00+5se513520 0.0 1028290
26 october, tue
tue2600:00+4se39585 0.0 1027201
03:00+2ese34630 0.0 102764
06:00+1ese22680 0.0 102618
09:00+2ese23660 0.0 102573
12:00+9se33440 0.0 1024360
15:00+12se22360 0.0 1022569
18:00+8se22480 0.0 102210
21:00+6e11540 0.0 102210
27 october, wed
wed2700:00+4nw11581 0.0 102310
03:00+3wnw1163100 0.0 102410
06:00+3w1165100 0.0 102410
09:00+4wnw2265100 0.0 102631
12:00+10wnw345010 0.0 1026504
15:00+13nw34504 0.0 10251015
18:00+9nnw22724 0.0 102612
21:00+6n22894 0.0 102810
28 october, thu
thu2800:00+5wsw00915 0.0 102810
03:00+4wnw119383 0.0 102910
06:00+3s119490 0.0 102910
09:00+4sse1195100 0.0 102913
12:00+10sse236619 0.0 1029417
15:00+13se23495 0.0 1027676
18:00+9se226111 0.0 102710
21:00+7ese226993 0.0 102710
29 october, fri
fri2900:00+5ese227356 0.0 102710
03:00+4ese227243 0.0 102710
06:00+3ese227271 0.0 102710
09:00+4ese376924 0.0 1027148
12:00+12se610475 0.0 1025537
15:00+15se79375 0.0 1023776
18:00+11ese511495 0.0 1022236
21:00+9se615550 0.0 1022395